TimeCDT,TemperatureF,Dew PointF,Humidity,Sea Level PressureIn,VisibilityMPH,Wind Direction,Wind SpeedMPH,Gust SpeedMPH,PrecipitationIn,Events,Conditions,WindDirDegrees,DateUTC
12:53 AM,77.0,75.0,94,29.95,7.0,SSE,3.5,-,N/A,,Clear,150,2013-08-30 05:53:00
1:53 AM,77.0,75.0,94,29.94,6.0,South,5.8,-,N/A,,Clear,180,2013-08-30 06:53:00
2:53 AM,75.9,75.0,97,29.93,5.0,South,3.5,-,N/A,,Clear,170,2013-08-30 07:53:00
3:53 AM,77.0,75.0,94,29.92,5.0,South,6.9,-,N/A,,Scattered Clouds,190,2013-08-30 08:53:00
4:53 AM,77.0,75.0,94,29.91,6.0,SSW,3.5,-,N/A,,Mostly Cloudy,210,2013-08-30 09:53:00
5:53 AM,75.9,75.0,97,29.91,4.0,South,5.8,-,N/A,,Clear,190,2013-08-30 10:53:00
6:37 AM,75.2,75.2,100,29.92,2.5,South,4.6,-,N/A,,Clear,190,2013-08-30 11:37:00
6:53 AM,75.0,73.9,96,29.91,2.5,SSW,4.6,-,N/A,,Clear,200,2013-08-30 11:53:00
7:38 AM,75.2,75.2,100,29.92,3.0,SSW,5.8,-,N/A,,Clear,210,2013-08-30 12:38:00
7:53 AM,77.0,75.0,94,29.90,5.0,SSW,6.9,-,N/A,,Clear,210,2013-08-30 12:53:00
8:53 AM,81.0,75.0,82,29.90,7.0,SW,5.8,-,N/A,,Clear,230,2013-08-30 13:53:00
9:53 AM,86.0,75.9,72,29.89,7.0,WSW,6.9,-,N/A,,Clear,240,2013-08-30 14:53:00
10:53 AM,90.0,75.0,61,29.88,10.0,SW,6.9,-,N/A,,Clear,230,2013-08-30 15:53:00
11:53 AM,91.9,75.0,58,29.86,10.0,SSW,8.1,-,N/A,,Clear,200,2013-08-30 16:53:00
12:53 PM,95.0,73.9,50,29.85,8.0,South,8.1,-,N/A,,Clear,190,2013-08-30 17:53:00
2:53 PM,97.0,71.1,43,29.82,6.0,SSW,8.1,-,N/A,,Haze,200,2013-08-30 19:53:00
3:44 PM,98.6,64.4,32,29.83,2.5,Variable,5.8,-,N/A,,Haze,0,2013-08-30 20:44:00
3:53 PM,100.0,64.0,31,29.81,1.8,NW,5.8,-,N/A,,Haze,310,2013-08-30 20:53:00
4:03 PM,98.6,64.4,32,29.82,3.0,WSW,4.6,-,N/A,,Haze,250,2013-08-30 21:03:00
4:53 PM,98.1,66.0,35,29.79,6.0,WSW,6.9,-,N/A,,Haze,240,2013-08-30 21:53:00
5:53 PM,97.0,64.9,35,29.77,10.0,West,5.8,-,N/A,,Clear,270,2013-08-30 22:53:00
6:53 PM,93.9,66.9,41,29.78,6.0,Calm,Calm,-,N/A,,Haze,0,2013-08-30 23:53:00
7:16 PM,89.6,71.6,55,29.80,0.8,Calm,Calm,-,N/A,,Haze,0,2013-08-31 00:16:00
7:26 PM,86.0,71.6,62,29.80,3.0,Calm,Calm,-,N/A,,Haze,0,2013-08-31 00:26:00
7:53 PM,86.0,70.0,59,29.78,6.0,Calm,Calm,-,N/A,,Haze,0,2013-08-31 00:53:00
8:53 PM,82.9,70.0,65,29.78,6.0,Calm,Calm,-,N/A,,Haze,0,2013-08-31 01:53:00
9:36 PM,80.6,69.8,70,29.79,2.5,Calm,Calm,-,N/A,,Haze,0,2013-08-31 02:36:00
9:43 PM,80.6,69.8,70,29.79,4.0,Calm,Calm,-,N/A,,Haze,0,2013-08-31 02:43:00
9:53 PM,79.0,70.0,74,29.77,4.0,Calm,Calm,-,N/A,,Haze,0,2013-08-31 02:53:00
10:53 PM,80.1,72.0,76,29.78,7.0,SSW,4.6,-,N/A,,Partly Cloudy,200,2013-08-31 03:53:00
11:53 PM,80.1,71.1,74,29.77,10.0,South,4.6,-,N/A,,Clear,190,2013-08-31 04:53:00